Home   Weather   Esfahãn   Past weeks

Flag for Iran Past Weather in Esfahãn, Iran — Yesterday and Last 2 Weeks

Now
45 °F

Clear.


Feels Like: 41 °F
Forecast: 21 / 46 °F
Wind: 7 mph from Southeast

Location: Esfahan

Current Time: Jan 22, 2017 at 11:55:34 am

Latest Report: Jan 22, 2017 at 11:00 am


Visibility: 4 mi

Pressure: 30.07 "Hg (24.81 "Hg at 1576m altitude)

Humidity: 42%

Dew Point: 23 °F

Location of EsfahãnLocation

Past Weather in Esfahãn — Graph

°F

Esfahãn Temperature Yesterday

Maximum temperature yesterday: 54 °F (at 2:30 pm)
Minimum temperature yesterday: 25 °F (at 7:30 am)
Average temperature yesterday: 40 °F

High & Low Weather Summary for the Past Weeks

 TemperatureHumidityPressure
High59 °F (Jan 10, 2:30 pm)100% (Jan 16, 7:30 am)30.30 "Hg (Jan 16, 7:30 am)
Low12 °F (Jan 8, 7:30 am)4% (Jan 8, 7:00 am)29.74 "Hg (Jan 13, 3:00 pm)
Average36 °F48%30.08 "Hg
* Reported Jan 7 10:30 am — Jan 22 10:30 am, Esfahãn, Weather by CustomWeather, © 2017

Note: Actual official high and low records may vary slightly from our data, if they occured in-between our weather recording intervals... More about our weather records

Advertising

Esfahãn Weather History for the Previous 24 Hours

Scroll right to see more
 ConditionsComfort  
Time TempWeatherWind HumidityBarometerVisibility
10:30 am
Sun, Jan 22
41 °FClear.7 mph49%30.07 "Hg4 mi
10:00 am39 °FHaze.7 mph52%30.09 "Hg3 mi
9:30 am37 °FHaze.7 mph60%30.09 "Hg2 mi
9:00 am36 °FHaze.5 mph65%30.07 "Hg2 mi
8:30 am28 °FHaze.5 mph69%30.07 "Hg2 mi
8:00 am27 °FHaze.5 mph74%30.07 "Hg2 mi
7:30 am27 °FHaze.5 mph80%30.07 "Hg2 mi
7:00 am25 °FHaze.5 mph80%30.07 "Hg2 mi
6:30 am25 °FClear.5 mph80%30.07 "Hg4 mi
6:00 am32 °FClear.5 mph69%30.04 "Hg4 mi
5:30 am34 °FClear.5 mph65%30.04 "Hg10 mi
5:00 am34 °FClear.5 mph65%30.04 "Hg10 mi
4:30 am27 °FClear.5 mph74%30.04 "Hg10 mi
4:00 am27 °FClear.5 mph69%30.04 "Hg10 mi
3:30 am28 °FClear.No wind74%30.04 "Hg10 mi
3:00 am27 °FClear.5 mph69%30.04 "Hg10 mi
2:30 am32 °FClear.7 mph60%30.04 "Hg10 mi
2:00 am36 °FClear.5 mph60%30.04 "Hg10 mi
1:30 am34 °FClear.No wind65%30.04 "Hg10 mi
1:00 am34 °FClear.No wind60%30.04 "Hg10 mi
12:30 am37 °FClear.5 mph52%30.04 "Hg10 mi
12:00 am41 °FClear.7 mph49%30.04 "Hg10 mi
11:30 pm
Sat, Jan 21
41 °FClear.7 mph49%30.04 "Hg10 mi
11:00 pm43 °FClear.7 mph46%30.04 "Hg10 mi
10:30 pm39 °FClear.5 mph56%30.04 "Hg10 mi
10:00 pm39 °FClear.7 mph52%30.04 "Hg10 mi
9:30 pm41 °FClear.7 mph53%30.04 "Hg10 mi
9:00 pm37 °FClear.5 mph65%30.04 "Hg10 mi
8:30 pm39 °FClear.No wind56%30.04 "Hg10 mi
8:00 pm43 °FClear.5 mph57%30.04 "Hg10 mi
7:30 pm45 °FClear.5 mph57%30.01 "Hg5 mi
7:00 pm46 °FClear.5 mph53%30.01 "Hg5 mi
6:30 pm46 °FPassing clouds.5 mph50%30.01 "Hg5 mi
6:00 pm48 °FPassing clouds.No wind50%30.01 "Hg5 mi
5:30 pm50 °FScattered clouds.12 mph47%29.98 "Hg5 mi
5:00 pm50 °FScattered clouds.7 mph43%29.98 "Hg5 mi
4:30 pm52 °FClear.5 mph41%29.98 "Hg5 mi
4:00 pm52 °FClear.12 mph38%29.98 "Hg5 mi
3:30 pm52 °FClear.7 mph38%29.98 "Hg5 mi
3:00 pm54 °FClear.9 mph35%29.98 "Hg5 mi
2:30 pm54 °FClear.No wind35%29.98 "Hg5 mi
2:00 pm52 °FClear.5 mph35%30.01 "Hg5 mi
1:30 pm52 °FHaze.No wind47%30.01 "Hg3 mi
1:00 pm48 °FHaze.No wind58%30.01 "Hg3 mi
12:30 pm46 °FHaze.5 mph62%30.12 "Hg3 mi
12:00 pm46 °FHaze.No wind62%30.04 "Hg2 mi
11:30 am43 °FHaze.5 mph71%30.07 "Hg2 mi
11:00 am43 °FHaze.5 mph71%30.09 "Hg2 mi
Weather by CustomWeather, © 2017

See weather overviewHow to use our weather pages